�������l�o���
Date,Time,MP-1(��Sv/h),MP-2(��Sv/h),MP-3(��Sv/h),MP-4(��Sv/h),MP-5(��Sv/h),MP-6(��Sv/h),MP-7(��Sv/h),����,����(m/s),���J
2024/03/16,00:00,0.147,0.128,0.208,0.197,0.208,0.116,0.076,�k��,1.8,��
2024/03/16,00:10,0.147,0.127,0.208,0.197,0.205,0.116,0.076,�쐼,1.1,��
2024/03/16,00:20,0.147,0.128,0.207,0.197,0.205,0.116,0.076,-,CALM,��
2024/03/16,00:30,0.145,0.127,0.206,0.197,0.207,0.116,0.076,�k�k��,0.6,��
2024/03/16,00:40,0.146,0.127,0.209,0.196,0.205,0.116,0.076,�k�k��,1.3,��
2024/03/16,00:50,0.146,0.127,0.207,0.197,0.207,0.116,0.076,�k��,1.6,��
2024/03/16,01:00,0.146,0.127,0.207,0.196,0.205,0.117,0.076,�k��,1.1,��
2024/03/16,01:10,0.146,0.127,0.207,0.197,0.206,0.115,0.076,���쓌,1.1,��
2024/03/16,01:20,0.146,0.127,0.207,0.197,0.205,0.115,0.076,-,CALM,��
2024/03/16,01:30,0.145,0.127,0.207,0.197,0.205,0.116,0.075,�k��,3.8,��
2024/03/16,01:40,0.146,0.128,0.207,0.196,0.206,0.116,0.076,�k�k��,1.8,��
2024/03/16,01:50,0.146,0.127,0.207,0.197,0.205,0.117,0.076,�k,1.8,��
2024/03/16,02:00,0.146,0.128,0.207,0.196,0.204,0.116,0.075,�k�k��,2.3,��
2024/03/16,02:10,0.147,0.128,0.207,0.196,0.206,0.116,0.076,�k,2.6,��
2024/03/16,02:20,0.146,0.127,0.207,0.197,0.204,0.116,0.076,�k�k��,3.3,��
2024/03/16,02:30,0.146,0.128,0.207,0.197,0.205,0.116,0.075,�k�k��,5.0,��
2024/03/16,02:40,0.147,0.127,0.207,0.196,0.206,0.115,0.076,�k�k��,5.0,��
2024/03/16,02:50,0.146,0.127,0.207,0.197,0.205,0.116,0.075,�k��,4.8,��
2024/03/16,03:00,0.146,0.127,0.207,0.197,0.205,0.116,0.075,�k�k��,3.7,��
2024/03/16,03:10,0.146,0.128,0.207,0.197,0.205,0.115,0.075,�k��,5.4,��
2024/03/16,03:20,0.146,0.128,0.208,0.196,0.206,0.115,0.076,�k�k��,3.3,��
2024/03/16,03:30,0.146,0.128,0.208,0.198,0.205,0.114,0.075,�k�k��,2.9,��
2024/03/16,03:40,0.147,0.128,0.207,0.196,0.205,0.115,0.075,�k,3.2,��
2024/03/16,03:50,0.147,0.128,0.208,0.196,0.205,0.115,0.076,�k,4.6,��
2024/03/16,04:00,0.145,0.127,0.209,0.197,0.205,0.115,0.076,�k,4.4,��
2024/03/16,04:10,0.145,0.128,0.208,0.197,0.206,0.116,0.075,�k,4.7,��
2024/03/16,04:20,0.146,0.127,0.206,0.197,0.205,0.116,0.075,�k,5.9,��
2024/03/16,04:30,0.146,0.128,0.207,0.197,0.204,0.116,0.075,�k,5.6,��
2024/03/16,04:40,0.146,0.126,0.208,0.198,0.204,0.115,0.076,�k,5.5,��
2024/03/16,04:50,0.146,0.128,0.207,0.196,0.207,0.116,0.076,�k,6.1,��
2024/03/16,05:00,0.146,0.128,0.207,0.196,0.206,0.116,0.076,�k�k��,6.8,��
2024/03/16,05:10,0.146,0.128,0.207,0.197,0.206,0.116,0.076,�k,6.0,��
2024/03/16,05:20,0.146,0.127,0.208,0.197,0.205,0.116,0.076,�k�k��,5.9,��
2024/03/16,05:30,0.147,0.127,0.207,0.197,0.205,0.116,0.076,�k��,6.1,��
2024/03/16,05:40,0.146,0.128,0.208,0.196,0.204,0.117,0.076,�k��,6.4,��
2024/03/16,05:50,0.146,0.127,0.208,0.198,0.206,0.115,0.076,�k��,5.9,��
2024/03/16,06:00,0.146,0.127,0.207,0.197,0.206,0.116,0.076,�k��,5.3,��
2024/03/16,06:10,0.145,0.128,0.208,0.197,0.206,0.116,0.075,�k��,5.3,��
2024/03/16,06:20,0.146,0.127,0.208,0.197,0.206,0.116,0.075,�k��,4.8,��
2024/03/16,06:30,0.147,0.128,0.208,0.198,0.206,0.115,0.076,�k�k��,3.2,��
2024/03/16,06:40,0.146,0.127,0.208,0.197,0.205,0.117,0.076,�k�k��,2.3,��
2024/03/16,06:50,0.146,0.127,0.207,0.197,0.206,0.116,0.076,�k�k��,2.2,��
2024/03/16,07:00,0.147,0.127,0.208,0.197,0.206,0.116,0.076,�k�k��,2.2,��
2024/03/16,07:10,0.147,0.128,0.207,0.198,0.204,0.116,0.076,�k,1.7,��
2024/03/16,07:20,0.147,0.129,0.208,0.196,0.206,0.115,0.076,�k,1.7,��
2024/03/16,07:30,0.145,0.128,0.207,0.197,0.206,0.116,0.076,�k,1.2,��
2024/03/16,07:40,0.146,0.127,0.208,0.196,0.205,0.116,0.075,�k,1.1,��
2024/03/16,07:50,0.147,0.127,0.208,0.196,0.205,0.116,0.075,�k�k��,1.9,��
2024/03/16,08:00,0.146,0.127,0.207,0.197,0.205,0.116,0.076,�k��,2.0,��
2024/03/16,08:10,0.147,0.127,0.206,0.196,0.205,0.116,0.076,�k,1.8,��
2024/03/16,08:20,0.147,0.127,0.208,0.197,0.206,0.115,0.076,�k�k��,1.8,��
2024/03/16,08:30,0.146,0.127,0.206,0.196,0.204,0.116,0.076,�k�k��,3.1,��
2024/03/16,08:40,0.146,0.127,0.207,0.196,0.206,0.116,0.075,�k�k��,2.7,��
2024/03/16,08:50,0.147,0.126,0.206,0.196,0.207,0.116,0.076,�k,1.7,��
2024/03/16,09:00,0.146,0.127,0.206,0.196,0.206,0.116,0.076,�k,1.6,��
2024/03/16,09:10,0.147,0.127,0.207,0.197,0.206,0.116,0.076,�k�k��,1.8,��
2024/03/16,09:20,0.145,0.127,0.206,0.197,0.204,0.117,0.076,�k��,1.5,��
2024/03/16,09:30,0.147,0.128,0.208,0.195,0.206,0.115,0.075,���k��,1.5,��
2024/03/16,09:40,0.144,0.127,0.207,0.196,0.203,0.115,0.076,��,1.4,��
2024/03/16,09:50,0.147,0.128,0.207,0.195,0.206,0.115,0.076,���쓌,2.3,��
2024/03/16,10:00,0.145,0.127,0.207,0.196,0.205,0.116,0.075,�쓌,3.0,��
2024/03/16,10:10,0.145,0.128,0.208,0.196,0.205,0.116,0.076,���쓌,4.4,��
2024/03/16,10:20,0.147,0.127,0.207,0.197,0.207,0.115,0.076,��,6.2,��
2024/03/16,10:30,0.146,0.127,0.208,0.196,0.205,0.116,0.076,���k��,5.0,��
2024/03/16,10:40,0.146,0.127,0.207,0.197,0.207,0.116,0.076,�k��,4.3,��
2024/03/16,10:50,0.146,0.127,0.208,0.196,0.205,0.116,0.076,�k��,4.9,��
2024/03/16,11:00,0.146,0.128,0.207,0.196,0.208,0.116,0.076,�k��,3.4,��
2024/03/16,11:10,0.145,0.127,0.208,0.195,0.205,0.116,0.076,�k��,4.4,��
2024/03/16,11:20,0.147,0.127,0.207,0.196,0.207,0.116,0.076,�k��,3.2,��
2024/03/16,11:30,0.145,0.127,0.208,0.197,0.204,0.116,0.076,�k��,4.0,��
2024/03/16,11:40,0.147,0.127,0.207,0.196,0.207,0.115,0.076,���k��,4.2,��
2024/03/16,11:50,0.146,0.129,0.208,0.198,0.205,0.116,0.076,�k��,3.7,��
2024/03/16,12:00,0.146,0.127,0.208,0.197,0.206,0.115,0.076,�k��,3.6,��
2024/03/16,12:10,0.146,0.128,0.207,0.197,0.205,0.116,0.077,���k��,3.1,��
2024/03/16,12:20,0.147,0.127,0.208,0.196,0.206,0.115,0.077,���k��,3.0,��
2024/03/16,12:30,0.146,0.128,0.207,0.197,0.205,0.116,0.076,���k��,3.7,��
2024/03/16,12:40,0.147,0.128,0.207,0.198,0.206,0.116,0.076,���k��,3.0,��
2024/03/16,12:50,0.146,0.129,0.207,0.197,0.206,0.116,0.075,���k��,2.7,��
2024/03/16,13:00,0.146,0.128,0.210,0.198,0.205,0.116,0.076,���k��,3.5,��
2024/03/16,13:10,0.147,0.128,0.208,0.197,0.206,0.116,0.076,���k��,2.8,��
2024/03/16,13:20,0.146,0.127,0.208,0.197,0.205,0.116,0.076,���k��,2.8,��
2024/03/16,13:30,0.146,0.129,0.207,0.197,0.207,0.116,0.076,���k��,3.0,��
2024/03/16,13:40,0.145,0.128,0.207,0.196,0.204,0.116,0.076,�k��,2.8,��
2024/03/16,13:50,0.147,0.128,0.207,0.198,0.205,0.116,0.076,���k��,2.5,��
2024/03/16,14:00,0.146,0.127,0.208,0.197,0.205,0.116,0.075,��,2.1,��
2024/03/16,14:10,0.147,0.127,0.208,0.198,0.204,0.116,0.076,���k��,2.1,��
2024/03/16,14:20,0.146,0.128,0.208,0.197,0.207,0.116,0.076,��,1.7,��
2024/03/16,14:30,0.147,0.128,0.207,0.197,0.204,0.116,0.076,��,2.4,��
2024/03/16,14:40,0.145,0.127,0.209,0.198,0.207,0.116,0.076,���k��,2.7,��
2024/03/16,14:50,0.146,0.129,0.208,0.197,0.204,0.116,0.076,��,2.4,��
2024/03/16,15:00,0.145,0.128,0.209,0.199,0.207,0.116,0.076,���k��,1.8,��
2024/03/16,15:10,0.146,0.129,0.208,0.197,0.205,0.117,0.076,���k��,2.6,��
2024/03/16,15:20,0.147,0.128,0.209,0.197,0.206,0.116,0.076,���k��,2.5,��
2024/03/16,15:30,0.147,0.128,0.210,0.199,0.206,0.116,0.076,�k��,3.1,��
2024/03/16,15:40,0.146,0.129,0.209,0.198,0.208,0.116,0.076,�k��,2.5,��
2024/03/16,15:50,0.146,0.128,0.209,0.199,0.205,0.115,0.077,���k��,2.7,��
2024/03/16,16:00,0.147,0.128,0.210,0.197,0.207,0.117,0.076,���k��,2.6,��
2024/03/16,16:10,0.148,0.128,0.209,0.198,0.206,0.116,0.076,��,2.2,��
2024/03/16,16:20,0.146,0.127,0.209,0.199,0.206,0.116,0.076,���쓌,1.3,��
2024/03/16,16:30,0.147,0.129,0.208,0.198,0.206,0.116,0.076,���쓌,1.3,��
2024/03/16,16:40,0.147,0.128,0.208,0.198,0.205,0.115,0.077,��쓌,2.3,��
2024/03/16,16:50,0.146,0.128,0.209,0.199,0.206,0.116,0.076,��쓌,1.0,��
2024/03/16,17:00,0.147,0.128,0.209,0.199,0.205,0.116,0.076,��쓌,2.0,��
2024/03/16,17:10,0.146,0.128,0.209,0.197,0.207,0.117,0.075,��쓌,1.9,��
2024/03/16,17:20,0.146,0.128,0.208,0.198,0.206,0.116,0.076,��쓌,1.8,��
2024/03/16,17:30,0.148,0.128,0.209,0.197,0.206,0.115,0.076,��쓌,2.2,��
2024/03/16,17:40,0.146,0.128,0.208,0.198,0.206,0.115,0.076,��쓌,1.8,��
2024/03/16,17:50,0.147,0.129,0.209,0.197,0.207,0.116,0.076,��쓌,2.2,��
2024/03/16,18:00,0.148,0.128,0.208,0.197,0.207,0.116,0.076,��쓌,2.3,��
2024/03/16,18:10,0.147,0.128,0.209,0.197,0.206,0.116,0.075,��,2.8,��
2024/03/16,18:20,0.147,0.128,0.208,0.199,0.207,0.116,0.076,��,1.5,��
2024/03/16,18:30,0.147,0.128,0.208,0.197,0.206,0.116,0.076,��,1.0,��
2024/03/16,18:40,0.147,0.128,0.208,0.198,0.205,0.116,0.076,��,1.8,��
2024/03/16,18:50,0.147,0.127,0.208,0.198,0.205,0.116,0.076,��쓌,1.6,��
2024/03/16,19:00,0.147,0.128,0.209,0.199,0.207,0.116,0.077,�쓌,0.6,��
2024/03/16,19:10,0.147,0.128,0.208,0.197,0.206,0.115,0.076,��쓌,0.9,��
2024/03/16,19:20,0.146,0.127,0.208,0.198,0.206,0.116,0.076,��,1.0,��
2024/03/16,19:30,0.146,0.128,0.209,0.198,0.207,0.116,0.076,��,2.4,��
2024/03/16,19:40,0.147,0.129,0.209,0.199,0.206,0.116,0.076,��,2.6,��
2024/03/16,19:50,0.147,0.128,0.208,0.198,0.206,0.116,0.076,��,3.7,��
2024/03/16,20:00,0.147,0.128,0.208,0.198,0.206,0.116,0.076,��쐼,3.7,��
2024/03/16,20:10,0.148,0.128,0.209,0.198,0.205,0.116,0.076,��쐼,4.5,��
2024/03/16,20:20,0.147,0.128,0.208,0.197,0.205,0.116,0.076,��쐼,4.2,��
2024/03/16,20:30,0.147,0.128,0.209,0.197,0.206,0.117,0.076,��쐼,4.1,��
2024/03/16,20:40,0.147,0.128,0.209,0.198,0.205,0.117,0.076,��쐼,4.3,��
2024/03/16,20:50,0.148,0.128,0.209,0.199,0.205,0.116,0.076,��쐼,3.9,��
2024/03/16,21:00,0.147,0.127,0.208,0.198,0.206,0.116,0.076,��쐼,3.4,��
2024/03/16,21:10,0.147,0.128,0.208,0.198,0.205,0.116,0.076,��쐼,3.9,��
2024/03/16,21:20,0.147,0.128,0.209,0.197,0.206,0.116,0.075,��쐼,4.5,��
2024/03/16,21:30,0.148,0.128,0.208,0.197,0.207,0.115,0.076,��쐼,3.7,��
2024/03/16,21:40,0.147,0.128,0.208,0.198,0.206,0.116,0.076,��쐼,3.0,��
2024/03/16,21:50,0.146,0.128,0.209,0.197,0.205,0.116,0.076,��쐼,2.7,��
2024/03/16,22:00,0.148,0.128,0.208,0.197,0.206,0.116,0.075,��쐼,2.1,��
2024/03/16,22:10,0.147,0.128,0.208,0.198,0.205,0.117,0.076,�쐼,2.2,��
2024/03/16,22:20,0.147,0.127,0.208,0.197,0.205,0.116,0.076,�쐼,2.6,��
2024/03/16,22:30,0.146,0.128,0.208,0.198,0.206,0.117,0.076,��쐼,2.6,��
2024/03/16,22:40,0.147,0.129,0.209,0.198,0.205,0.117,0.076,��쐼,3.1,��
2024/03/16,22:50,0.147,0.128,0.209,0.197,0.206,0.117,0.076,��,3.3,��
2024/03/16,23:00,0.148,0.129,0.209,0.197,0.206,0.116,0.076,��쐼,3.2,��
2024/03/16,23:10,0.147,0.129,0.209,0.197,0.206,0.116,0.076,��쐼,3.2,��
2024/03/16,23:20,0.147,0.129,0.209,0.198,0.206,0.117,0.076,��쐼,3.3,��
2024/03/16,23:30,0.147,0.127,0.210,0.198,0.206,0.116,0.076,��쐼,2.9,��
2024/03/16,23:40,0.147,0.128,0.208,0.197,0.207,0.116,0.076,��,2.8,��
2024/03/16,23:50,0.147,0.128,0.209,0.199,0.206,0.116,0.077,��쓌,3.6,��
